Voltar ao catálogo

COSMOS 1051

AtivoMilitarLEO
NORAD 11128·PAYLOAD·🇷🇺 Russia

Lançado Dec 5, 1978 de Plesetsk Cosmodrome

Loading…

Próximas Passagens (próximas 24 horas)

TLE

AtualizadoSource: Space-Track

Época: Sep 14, 2026, 13:46 UTC

1 11128U 78109A   26257.57406272 -.00000010  00000-0  39577-4 0  9990
2 11128  74.0157 293.9129 0059060 253.8936 274.6682 12.55968454190341

Acompanhe COSMOS 1051 em tempo real com AllMySat

Download on the App Store